User: anonymous   Login
Location: Zagreb
(45.8000°N, 16.0000°E)
Time: 15:40:23
(UTC+02:00)
Language:

Tiangong - Orbit

View from above orbital plane
View from above orbital plane
View from above satellite
View from above satellite

Ground track
Ground track

The orbit data is extracted from the following two-line orbital elements,

1 48274U 21035A   22142.09948354  .00022504  00000-0  27443-3 0  9995
2 48274  41.4720  17.5224 0002355   7.7289 117.1383 15.59942128 60695
Epoch (UTC): 22 May 2022 02:23:15
Eccentricity: 0.0002355
inclination: 41.4720°
perigee height: 386 km
apogee height: 389 km
right ascension of ascending node: 17.5224°
argument of perigee: 7.7289°
revolutions per day: 15.59942128
mean anomaly at epoch: 117.1383°
orbit number at epoch: 6069

The dashed part of the orbit path shows where the satellite is in the earth's shadow,  

DLR